When you browse on this site, cookies collect data to enhance your experience and personalize the content and advertising you see.
Visit our Privacy Policy to learn more. By continuing to use the site, you agree to this use of cookies and data.
  • în România
  • Lista ţărilor
  • Pe 7 zile
  • Temperatura apei
  • Hartă satelitară
  • Meteo pe hartă
  • Widget-uri
  • user-avatar
    Intrare

    Meteo pe oră la Pervomayskiy

    Astăzi, 21 Noiembrie, Miercuri

    Timp Temperatura Precipitaţii Vânt Presiune Umiditate
    00:00 +7°C° 0.5 mm 2 m/s 736 mmHg 93%
    01:00 +7°C° 0.1 mm 2 m/s 736 mmHg 93%
    02:00 +7°C° 0.1 mm 2 m/s 737 mmHg 93%
    03:00 +6°C° 0 mm 2 m/s 737 mmHg 92%
    04:00 +6°C° 0 mm 2 m/s 737 mmHg 92%
    05:00 +6°C° 0 mm 2 m/s 737 mmHg 92%
    06:00 +6°C° 0 mm 2 m/s 738 mmHg 92%
    07:00 +6°C° 0 mm 2 m/s 738 mmHg 92%
    08:00 +7°C° 0 mm 1 m/s 738 mmHg 91%
    09:00 +7°C° 0 mm 1 m/s 737 mmHg 91%
    10:00 +7°C° 0 mm 1 m/s 737 mmHg 89%
    11:00 +7°C° 0 mm 1 m/s 737 mmHg 87%
    12:00 +7°C° 0 mm 1 m/s 737 mmHg 85%
    13:00 +7°C° 0 mm 1 m/s 737 mmHg 84%
    14:00 +8°C° 0 mm 1 m/s 736 mmHg 83%
    15:00 +7°C° 0 mm 1 m/s 736 mmHg 82%
    16:00 +7°C° 0 mm 1 m/s 736 mmHg 84%
    17:00 +6°C° 0 mm 1 m/s 736 mmHg 85%
    18:00 +6°C° 0 mm 1 m/s 736 mmHg 87%
    19:00 +6°C° 0 mm 1 m/s 736 mmHg 87%
    20:00 +6°C° 0 mm 1 m/s 736 mmHg 88%
    21:00 +5°C° 0 mm 1 m/s 736 mmHg 89%
    22:00 +5°C° 0 mm 1 m/s 736 mmHg 88%
    23:00 +5°C° 0 mm 1 m/s 735 mmHg 88%

    Mâine, 22 Noiembrie, Joi

    Timp Temperatura Precipitaţii Vânt Presiune Umiditate
    00:00 +5°C° 0 mm 1 m/s 735 mmHg 88%
    01:00 +5°C° 0 mm 1 m/s 735 mmHg 87%
    02:00 +4°C° 0 mm 1 m/s 735 mmHg 87%
    03:00 +4°C° 0 mm 1 m/s 735 mmHg 86%
    04:00 +4°C° 0 mm 1 m/s 735 mmHg 86%
    05:00 +4°C° 0 mm 1 m/s 735 mmHg 86%
    06:00 +4°C° 0 mm 1 m/s 735 mmHg 85%
    07:00 +4°C° 0 mm 1 m/s 735 mmHg 84%
    08:00 +4°C° 0 mm 1 m/s 735 mmHg 83%
    09:00 +4°C° 0 mm 1 m/s 736 mmHg 82%
    10:00 +5°C° 0 mm 1 m/s 735 mmHg 79%
    11:00 +6°C° 0 mm 1 m/s 735 mmHg 76%
    12:00 +6°C° 0 mm 1 m/s 735 mmHg 73%
    13:00 +7°C° 0 mm 1 m/s 735 mmHg 72%
    14:00 +7°C° 0 mm 1 m/s 735 mmHg 72%
    15:00 +7°C° 0 mm 1 m/s 735 mmHg 71%
    16:00 +6°C° 0 mm 1 m/s 735 mmHg 74%
    17:00 +6°C° 0 mm 1 m/s 735 mmHg 76%
    18:00 +5°C° 0 mm 1 m/s 736 mmHg 78%
    19:00 +5°C° 0 mm 1 m/s 736 mmHg 80%
    20:00 +4°C° 0 mm 1 m/s 736 mmHg 82%
    21:00 +3°C° 0 mm 1 m/s 736 mmHg 84%
    22:00 +3°C° 0 mm 1 m/s 736 mmHg 84%
    23:00 +3°C° 0 mm 1 m/s 736 mmHg 84%

    Poimâine, 23 Noiembrie, Vineri

    Timp Temperatura Precipitaţii Vânt Presiune Umiditate
    00:00 +2°C° 0 mm 1 m/s 736 mmHg 85%
    01:00 +2°C° 0 mm 1 m/s 736 mmHg 84%
    02:00 +2°C° 0 mm 1 m/s 736 mmHg 83%
    03:00 +2°C° 0 mm 1 m/s 736 mmHg 83%
    04:00 +1°C° 0 mm 2 m/s 736 mmHg 83%
    05:00 +1°C° 0 mm 2 m/s 736 mmHg 83%
    06:00 +1°C° 0 mm 2 m/s 736 mmHg 83%
    07:00 +1°C° 0 mm 3 m/s 737 mmHg 78%
    08:00 +2°C° 0 mm 3 m/s 737 mmHg 72%
    09:00 +3°C° 0 mm 4 m/s 737 mmHg 67%
    10:00 +4°C° 0 mm 4 m/s 737 mmHg 60%
    11:00 +5°C° 0 mm 5 m/s 738 mmHg 52%
    12:00 +6°C° 0 mm 5 m/s 738 mmHg 44%
    13:00 +5°C° 0 mm 5 m/s 738 mmHg 44%
    14:00 +5°C° 0 mm 5 m/s 739 mmHg 45%
    15:00 +5°C° 0 mm 5 m/s 739 mmHg 45%
    16:00 +3°C° 0 mm 4 m/s 740 mmHg 51%
    17:00 +2°C° 0 mm 3 m/s 741 mmHg 58%
    18:00 +1°C° 0 mm 2 m/s 742 mmHg 65%
    19:00 +1°C° 0 mm 2 m/s 743 mmHg 69%
    20:00 -1°C° 0 mm 2 m/s 743 mmHg 73%
    21:00 +1°C° 0 mm 1 m/s 744 mmHg 76%
    22:00 0°C° 0 mm 1 m/s 744 mmHg 78%
    23:00 0°C° 0 mm 1 m/s 744 mmHg 80%

    24 Noiembrie, Sâmbătă

    Timp Temperatura Precipitaţii Vânt Presiune Umiditate
    00:00 0°C° 0 mm 1 m/s 745 mmHg 82%
    01:00 0°C° 0 mm 1 m/s 745 mmHg 82%
    02:00 0°C° 0 mm 1 m/s 745 mmHg 82%
    03:00 -3°C° 0 mm 2 m/s 745 mmHg 83%
    04:00 -3°C° 0 mm 2 m/s 745 mmHg 82%
    05:00 -3°C° 0 mm 2 m/s 745 mmHg 82%
    06:00 -3°C° 0 mm 2 m/s 745 mmHg 82%
    07:00 -2°C° 0 mm 2 m/s 745 mmHg 78%
    08:00 -2°C° 0 mm 3 m/s 745 mmHg 75%
    09:00 -1°C° 0 mm 3 m/s 745 mmHg 71%
    10:00 0°C° 0 mm 3 m/s 745 mmHg 66%
    11:00 +2°C° 0 mm 3 m/s 744 mmHg 61%
    12:00 +3°C° 0 mm 4 m/s 744 mmHg 56%
    13:00 +3°C° 0 mm 4 m/s 744 mmHg 57%
    14:00 +3°C° 0 mm 4 m/s 744 mmHg 58%
    15:00 +3°C° 0 mm 4 m/s 743 mmHg 59%
    16:00 +2°C° 0 mm 3 m/s 743 mmHg 63%
    17:00 +1°C° 0 mm 3 m/s 743 mmHg 68%
    18:00 -1°C° 0 mm 3 m/s 743 mmHg 73%
    19:00 -1°C° 0 mm 2 m/s 743 mmHg 71%
    20:00 -1°C° 0 mm 2 m/s 743 mmHg 70%
    21:00 -1°C° 0 mm 2 m/s 743 mmHg 69%
    22:00 -1°C° 0 mm 2 m/s 743 mmHg 68%
    23:00 +1°C° 0 mm 1 m/s 742 mmHg 67%

    25 Noiembrie, Duminică

    Timp Temperatura Precipitaţii Vânt Presiune Umiditate
    00:00 +1°C° 0 mm 1 m/s 742 mmHg 66%
    01:00 +1°C° 0 mm 1 m/s 742 mmHg 65%
    02:00 +1°C° 0 mm 1 m/s 741 mmHg 64%
    03:00 0°C° 0 mm 0 m/s 741 mmHg 64%
    04:00 +1°C° 0 mm 0 m/s 741 mmHg 62%
    05:00 +1°C° 0 mm 0 m/s 740 mmHg 61%
    06:00 +1°C° 0 mm 0 m/s 740 mmHg 59%
    07:00 +2°C° 0 mm 0 m/s 740 mmHg 56%
    08:00 +3°C° 0 mm 0 m/s 740 mmHg 52%
    09:00 +4°C° 0 mm 0 m/s 739 mmHg 48%
    10:00 +5°C° 0 mm 0 m/s 739 mmHg 44%
    11:00 +7°C° 0 mm 0 m/s 739 mmHg 39%
    12:00 +9°C° 0 mm 1 m/s 738 mmHg 35%
    13:00 +9°C° 0 mm 1 m/s 738 mmHg 37%
    14:00 +8°C° 0 mm 0 m/s 738 mmHg 40%
    15:00 +8°C° 0 mm 0 m/s 737 mmHg 42%
    16:00 +7°C° 0 mm 0 m/s 738 mmHg 45%
    17:00 +5°C° 0 mm 0 m/s 738 mmHg 49%
    18:00 +4°C° 0 mm 0 m/s 738 mmHg 52%
    19:00 +4°C° 0 mm 0 m/s 738 mmHg 52%
    20:00 +4°C° 0 mm 1 m/s 738 mmHg 53%
    21:00 +4°C° 0 mm 1 m/s 737 mmHg 53%
    22:00 +4°C° 0 mm 1 m/s 737 mmHg 53%
    23:00 +4°C° 0 mm 1 m/s 737 mmHg 53%

    26 Noiembrie, Luni

    Timp Temperatura Precipitaţii Vânt Presiune Umiditate
    00:00 +4°C° 0 mm 1 m/s 737 mmHg 52%
    01:00 +4°C° 0 mm 1 m/s 737 mmHg 52%
    02:00 +4°C° 0 mm 1 m/s 736 mmHg 52%
    03:00 +3°C° 0 mm 0 m/s 736 mmHg 52%
    04:00 +4°C° 0 mm 1 m/s 736 mmHg 52%
    05:00 +4°C° 0 mm 1 m/s 736 mmHg 52%
    06:00 +4°C° 0 mm 1 m/s 736 mmHg 52%
    07:00 +5°C° 0 mm 1 m/s 736 mmHg 50%
    08:00 +6°C° 0 mm 1 m/s 736 mmHg 48%
    09:00 +7°C° 0 mm 1 m/s 736 mmHg 46%
    10:00 +8°C° 0 mm 1 m/s 736 mmHg 43%
    11:00 +9°C° 0 mm 1 m/s 735 mmHg 40%
    12:00 +11°C° 0 mm 1 m/s 735 mmHg 37%
    13:00 +11°C° 0 mm 1 m/s 734 mmHg 38%
    14:00 +11°C° 0 mm 1 m/s 734 mmHg 40%
    15:00 +10°C° 0 mm 2 m/s 734 mmHg 42%
    16:00 +9°C° 0 mm 2 m/s 734 mmHg 47%
    17:00 +7°C° 0 mm 2 m/s 734 mmHg 51%
    18:00 +6°C° 0 mm 2 m/s 734 mmHg 56%
    19:00 +6°C° 0 mm 2 m/s 734 mmHg 57%
    20:00 +5°C° 0 mm 2 m/s 734 mmHg 58%
    21:00 +5°C° 0 mm 2 m/s 733 mmHg 59%
    22:00 +5°C° 0 mm 2 m/s 733 mmHg 59%
    23:00 +6°C° 0 mm 1 m/s 733 mmHg 59%
    Arată mai mult